Regional Weather Roundup
Issued by NWS

Home | Current Version | Previous Version | Graphics & Text | Print | Product List | Glossary On
Versions: 1 2 3 4 5 6 7 8 9 10 11 12 13 14 15 16 17 18 19 20 21 22 23 24 25 26 27 28 29 30 31 32 33 34 35 36 37 38 39 40 41 42 43 44 45 46 47 48 49 50
000
ASUS43 KBIS 171710
RWRND

NORTH DAKOTA REGIONAL WEATHER ROUNDUP
NATIONAL WEATHER SERVICE BISMARCK ND
1200 PM CDT THU APR 17 2014

NOTE: "FAIR" INDICATES FEW OR NO CLOUDS BELOW 12,000 FEET WITH NO
SIGNIFICANT WEATHER AND/OR OBSTRUCTIONS TO VISIBILITY.


NDZ001>003-009>011-017-171800-
NORTHWEST NORTH DAKOTA

CITY           SKY/WX    TMP DP  RH WIND       PRES   REMARKS
WILLISTON      PTSUNNY   37  25  61 SE21      30.16F
MINOT          CLOUDY    33  15  47 E9        30.27F
MINOT AFB      CLOUDY    32  17  55 SE10      30.27F
$$

NDZ018>021-031>035-040>046-171800-
SOUTHWEST NORTH DAKOTA

CITY           SKY/WX    TMP DP  RH WIND       PRES   REMARKS
BISMARCK       MOSUNNY   38  14  37 SE8       30.28F
DICKINSON      CLOUDY    36  24  62 SE18G28   30.14F
GARRISON         N/A     34  14  43 SE13      30.25F
HETTINGER ARPT CLOUDY    31  27  85 SE15      30.17S
$$

NDZ004>008-012>016-024-026-027-054-171800-
NORTHEAST NORTH DAKOTA

CITY           SKY/WX    TMP DP  RH WIND       PRES   REMARKS
GRAND FORKS    SUNNY     37  12  35 N8        30.36F
GRND FRKS AFB  SUNNY     37  13  38 N8        30.36F
DEVILS LAKE    SUNNY     34   7  32 S8        30.32F
$$

NDZ022-023-025-028>030-036>039-047>053-171800-
SOUTHEAST NORTH DAKOTA

CITY           SKY/WX    TMP DP  RH WIND       PRES   REMARKS
FARGO          SUNNY     39  16  39 N10       30.33F
JAMESTOWN      SUNNY     37   9  31 SE5       30.30F
$$




USA.gov is the U.S. government's official web portal to all federal, state and local government web resources and services.